User: anonymous   Login
Location: Unspecified
(0.0000°N, 0.0000°E)
Time: 08:55:45
(UTC+00:00)
Language:

Tiros 1 despin weight - Orbit

View from above orbital plane
View from above orbital plane
View from above satellite
View from above satellite

Ground track
Ground track

The orbit data is extracted from the following two-line orbital elements,

1   115U 60002D   20093.95913962  .00000058  00000-0  33882-4 0  9994
2   115  48.1662 277.2475 0034999 276.1062  83.5864 14.83557866201761
Epoch (UTC): 02 April 2020 23:01:09
Eccentricity: 0.0034999
inclination: 48.1662°
perigee height: 593 km
apogee height: 642 km
right ascension of ascending node: 277.2475°
argument of perigee: 276.1062°
revolutions per day: 14.83557866
mean anomaly at epoch: 83.5864°
orbit number at epoch: 20176

The dashed part of the orbit path shows where the satellite is in the earth's shadow,  

DLR